Regional Weather Roundup
Issued by NWS

Home | Current Version | Previous Version | Text Only | Print | Product List | Glossary On
Versions: 1 2 3 4 5 6 7 8 9 10 11 12 13 14 15 16 17 18 19 20 21 22 23 24 25 26 27 28 29 30 31 32 33 34 35 36 37 38 39 40 41 42 43 44 45 46 47 48 49 50
000
ASUS43 KMKX 291411
RWRWI

WISCONSIN REGIONAL WEATHER ROUNDUP
NATIONAL WEATHER SERVICE MILWAUKEE/SULLIVAN WI
900 AM CDT SAT AUG 29 2015

NOTE: "FAIR" INDICATES FEW OR NO CLOUDS BELOW 12,000 FEET WITH NO
SIGNIFICANT WEATHER AND/OR OBSTRUCTIONS TO VISIBILITY.

WIZ001-002-006>008-014>016-023>028-291500-
NORTHWEST WISCONSIN

CITY           SKY/WX    TMP DP  RH WIND       PRES   REMARKS
SUPERIOR ARPT  CLOUDY    61  58  89 W8        30.03S
ASHLAND        MOSUNNY   62  59  90 SW7       30.03R
HAYWARD        SUNNY     60  55  83 SW6       30.06F
SIREN          MOSUNNY   61  56  85 S3        30.05F
CUMBERLAND     FOG       55  54  94 S3        30.07S VSB 1/4
RICE LAKE      CLOUDY    57  56  94 S5        30.07F FOG
CHETEK         PTSUNNY  N/A N/A N/A CALM      30.06S
LADYSMITH      MOSUNNY   59  57  91 S3        30.07S
EAU CLAIRE     CLOUDY    58  56  93 SE6       30.05F FOG
MENOMONIE      CLOUDY    58  57  96 SE3       30.06F FOG
NEW RICHMOND   CLOUDY    57  56  99 S7        30.06S FOG
OSCEOLA        PTSUNNY   60  60 100 S6        30.09S
$$

WIZ003>005-009-010-017-018-291500-
NORTH CENTRAL WISCONSIN

CITY           SKY/WX    TMP DP  RH WIND       PRES   REMARKS
MANITOWISH WTR MOSUNNY   60  57  89 SW6       30.05S
ARBOR VITAE    PTSUNNY   62  57  84 SW5       30.06R
WOODRUFF       PTSUNNY   62  57  84 SW5       30.06R
RHINELANDER    CLOUDY    59  57  93 S8        30.06S FOG
EAGLE RIVER    MOSUNNY   59  56  89 W3        30.07R
LAND O LAKES   MOSUNNY   61  55  81 S5        30.06F
PHILLIPS       MOSUNNY   58  56  91 SW5       30.05R
TOMAHAWK       CLOUDY    57  56  97 CALM      30.05F FOG
MEDFORD        CLOUDY    58  57  99 SE5       30.07R FOG
MERRILL        CLOUDY    59  58  97 CALM      30.08R
$$

WIZ029-030-035-036-043>047-291500-
CENTRAL WISCONSIN

CITY           SKY/WX    TMP DP  RH WIND       PRES   REMARKS
WAUSAU         CLOUDY    61  58  90 SE6       30.04F
MOSINEE        CLOUDY    59  59 100 SE8       30.07F
MARSHFIELD     CLOUDY    61  57  87 SE7       30.06F FOG
STEVENS POINT  CLOUDY    58  57  99 E3        30.06F FOG
WAUPACA        CLOUDY    61  60  97 N3        30.08S FOG
WAUTOMA        CLOUDY    61  61 100 CALM      30.07R FOG
WISC RAPIDS    CLOUDY    61  58  90 SE9       30.06F
CAMP DOUGLAS   CLOUDY    60  60 100 E6        30.04F
$$

WIZ011>013-019>022-031-037>040-048>050-291500-
NORTHEAST WISCONSIN

CITY           SKY/WX    TMP DP  RH WIND       PRES   REMARKS
ANTIGO         CLOUDY    60  58  94 S7        30.08F
SHAWANO        CLOUDY    61  60  94 CALM      30.08F
OCONTO         CLOUDY    59  59 100 CALM      30.08S
STURGEON BAY   CLOUDY    59  55  88 SE6       30.10S
GREEN BAY      CLOUDY    61  59  93 NE5       30.08S FOG
MANITOWOC      LGT RAIN  60  59  96 MISG      30.09S FOG
APPLETON       CLOUDY    61  61 100 VRB6      30.06S
CLINTONVILLE   CLOUDY    59  59 100 CALM      30.08F FOG
OSHKOSH        CLOUDY    61  59  93 SE7       30.05F FOG
$$

WIZ032>034-041-042-053>061-291500-
SOUTHWEST WISCONSIN

CITY           SKY/WX    TMP DP  RH WIND       PRES   REMARKS
LA CROSSE      CLOUDY    63  58  83 VRB3      30.05R
SPARTA         CLOUDY    61  58  91 E6        30.05F
VIROQUA        CLOUDY    59  59 100 NE7       30.04F
BOSCOBEL       CLOUDY    64  62  93 VRB3      30.02S FOG
PRAIRIE DU CHI CLOUDY    62  61  96 N7        30.02R
PLATTEVILLE    CLOUDY    65  65  99 CALM      30.00S
$$

WIZ056-057-062-063-064-067-068-291500-
SOUTH CENTRAL WISCONSIN

CITY           SKY/WX    TMP DP  RH WIND       PRES   REMARKS
REEDSBURG      CLOUDY    60  60  99 NE6       30.03S
BARABOO/DELLS  CLOUDY    60  59  95 NE6       30.04S FOG
LONE ROCK      CLOUDY    65  63  93 N6        30.02S FOG
MINERAL POINT  CLOUDY    64  63  94 CALM      30.01S FOG
MADISON        DRIZZLE   63  61  93 SE6       30.01F FOG
MIDDLETON      CLOUDY    64  64  99 SE3       30.02S
WATERTOWN      CLOUDY    61  61 100 E5        30.03S FOG
MONROE         CLOUDY    63  61  94 SE5       30.00F FOG
JANESVILLE     NOT AVBL
$$

WIZ051-052-058>065-066-070>072-291500-
SOUTHEAST WISCONSIN

CITY           SKY/WX    TMP DP  RH WIND       PRES   REMARKS
MILWAUKEE      CLOUDY    62  60  93 SE9       30.04F FOG
WAUKESHA       DRIZZLE   59  57  94 E6        30.05F
MILWAUKEE/TIMM CLOUDY    61  57  88 CALM      30.05F FOG
RACINE         LGT RAIN  62  59  90 SE8       30.06F FOG
BURLINGTON     CLOUDY    60  59  98 SE8       30.03F FOG
KENOSHA        LGT RAIN  61  59  93 SE12      30.05F FOG
FOND DU LAC    LGT RAIN  61  60  97 E5        30.05F FOG
SHEBOYGAN      CLOUDY    61  60  97 E7        30.07S FOG
WEST BEND      CLOUDY    59  59 100 CALM      30.05S FOG
JUNEAU         DRIZZLE   60  59  99 E5        30.05F
$$

LSZ147-162-291500-
LAKE SUPERIOR

STATION/POSITION TIME  TEMP    WIND        PRES    WAVE
                       AIR SEA DIR/SP/G            HT/PER
                 (UTC) (F)     (DEG/KT/KT) (MB)    (FT/S)
W MID LAKE BUOY  1350   56 54  260/ 14/ 16 1015.6R   3/ 5
DEVILS ISLAND    1400   56     250/ 14/ 17 1016.3R
PORT WING        1300   60     210/  3/  7 1016.9
SAXON HARBOR     1300   61     200/  2/  6 1016.3
$$

LMZ867-665-643>646-291500-
LAKE MICHIGAN

STATION/POSITION TIME  TEMP    WIND        PRES    WAVE
                       AIR SEA DIR/SP/G            HT/PER
                 (UTC) (F)     (DEG/KT/KT) (MB)    (FT/S)
CHAMBERS ISLAND  1300   60     200/  3/  5 1019.0R
S GREEN BAY BUOY 1400   61 62  140/  8/  8 1019.5F
N MID LAKE BUOY  1350   62 64  200/ 12/ 16 1018.5F   2/ 4
NORTHPORT PIER   1300   61     150/  3/  6 1019.0R
SISTER BAY       1319   61     180/  5/  5   N/A
ALGOMA LAKESHORE 1314             CALM       N/A
SHEBOYGAN LAKESH 1400   57     100/  7/  9 1018.2F
PORT WASHINGTON  1340   58     170/  4/ 10 1018.3F
ATWATER BUOY     1400   53 48  200/  4/  6 1018.6F
MILWAUKEE LAKESH 1300   58     150/  5/  6   N/A
S MID LAKE BUOY  1350   66 68  170/  4/  6 1018.1F   1/ 3
KENOSHA   LAKESH 1400   58     140/ 11/ 11 1017.3F
$$

TC  - TEMPERATURE IN CELSIUS
VSB - VISIBILITY IN STATUTE MILES
WCI - WIND CHILL INDEX
HX  - HEAT INDEX



USA.gov is the U.S. government's official web portal to all federal, state and local government web resources and services.